Вернуться в каталог

COSMOS 2499 DEB

АктивенPO
NORAD 55723·DEBRIS·🇷🇺 Russia

Запущен May 23, 2014 с Plesetsk Cosmodrome

Loading…

Ближайшие Пролёты (ближайшие 24 часа)

TLE

СвежийSource: Space-Track

Эпоха: Sep 13, 2026, 15:12 UTC

1 55723U 14028AK  26256.63339250  .00001890  00000-0  76788-2 0  9995
2 55723  82.5819 221.6189 0191438 191.4810 168.1896 12.79731954170180

Отслеживайте COSMOS 2499 DEB в реальном времени с AllMySat

Download on the App Store